STARLINK-31575, 59471

Orbit data source: Space-Track

STARLINK-31575, 59471 is a payload satellite owned by SpaceX/Seattle (US) in LEO that was launched on Wed, 10 Apr 2024 UTC via an FALCON 9 launch vehicle from the Air Force Eastern Test Range (AFETR). Payload-class satellites include a variety of spacecraft equipped with specific instruments for various scientific and technological missions. These include communications satellites like Starlink; space stations such as the ISS; scientific satellites like the Hubble; Earth observation satellites from companies like Planet Labs, Umbra, and HawkEye 360; GPS; miniature CubeSats for education and research; and military/defense satellites.

Loading next visibility...
Identifier
59471, 2024-068S
Orbit
LEO
Country
Flag of USUS
Related business
Manufacturer
SpaceX/Seattle
Mission
Operational Commercial Communications
Bus & Motor
STARLINK V2M, Unknown motor
Mass
730 kg wet, ~700 kg dry
Launch date (UTC)
2024-04-10 (2 years ago)
Launch vehicle
FALCON 9
Launch site
Air Force Eastern Test Range (AFETR)
Object type
Payload
Rocket body
Debris
Shape & HBR
Box + 2 Pan, 17.7 m
Radar Cross Section
33.884 m², Large (>1 m²)

Expand to show TLE details & history
Last TLE update: 2 days ago

TLE from 2 days ago
0 STARLINK-31575
1 59471U 24068S   26171.02149086  .00001011  00000-0  46249-4 0  9995
2 59471  43.0018 173.0891 0001388 273.9595  86.1098 15.27578925124216
Epoch: 2026-06-20T00:30Z
TLE epoch observation values (Epoch: 2026-06-20T00:30:56.810Z)
Latitude
-0.00001°
Longitude
-102.88971°
Altitude
482.763 km
Speed
7.626 km/s
True Right ascension
11h 32m 21s
True Declination
0° 00' 00"
Sunlit
Object was in daylight at epoch
Visualization orbit readout
Latitude
Unknown
Longitude
Unknown
Altitude
Unknown
Speed
Unknown
Apparent Right ascension
Unknown
Apparent Declination
Unknown
Sunlit
N/A
Visualization observer readout
Local Sidereal Time
21:32:06
Azimuth
Unknown
Elevation
Unknown
Doppler factor
Unknown
Orbital elements
Apogee altitude
485.95 km
Perigee altitude
484.045 km
Semi-major axis
6,863.134 km
Eccentricity
0.00014
Inclination
43.0018°
RAAN
173.0891°
Arg. of periapsis
273.9595°
True anomaly
86.12567°
Mean anomaly
86.1098°
Eccentric anomaly
86.11773°
Mean motion
3.81733 °/min
Orbital period
94.31 mins
BSTAR
0.000046249
Loading maneuver chart data...
Computing Atmospheric mass density...
Loading historical data...
Loading historical data...
Loading historical data...
Loading historical data...
Loading historical data...
Loading historical data...
Loading historical data...

Documentation

Showing up to 5 results
|